Wind_Speed
15 15 12 9 7 7 7 4 1 3 3 2 3 2 4 2 3 3 2 2 4 5 5 4 4 7 6 9 9 6 6 5 4 8 1 2 3 6 5 4 5 3 3 6
17 14 10 9 7 6 6 3 3 4 4 2 2 2 2 3 4 3 3 3 6 3 6 2 5 4 5 11 9 7 6 2 1 6 5 4 3 4 3 3 2 6 4 6
19 13 9 11 8 6 5 1 1 1 4 2 4 3 4 3 2 3 3 3 4 3 4 5 4 4 4 7 12 14 10 5 8 11 9 5 3 4 5 5 3 3 5 11
19 10 11 10 8 5 3 1 2 3 1 3 3 4 2 4 2 3 4 2 4 4 3 4 7 8 10 14 17 21 8 10 7 13 12 6 8 7 9 9 10 10 13 8
16 12 11 8 6 4 3 2 3 2 1 3 5 4 4 5 2 4 4 4 3 2 5 8 15 11 10 12 5 5 5 12 14 16 17 17 14 13 11 14 4 4 1 7
16 12 10 8 5 4 3 6 7 3 3 3 4 4 4 3 4 4 8 5 2 6 14 22 24 22 20 14 5 5 5 4 5 14 12 12 9 12 6 3 1 1 5 3
14 13 8 5 4 5 5 6 6 5 2 3 4 1 3 4 3 5 11 13 5 5 8 14 17 18 20 17 18 20 10 4 5 12 12 14 1 2 1 5 3 2 1 0
13 9 6 5 4 4 3 6 6 6 1 4 5 5 4 6 6 6 8 13 10 8 8 3 5 3 4 6 4 4 12 7 6 6 7 2 2 5 3 2 1 1 1 2
11 8 6 6 5 4 4 6 7 5 4 2 3 2 2 1 1 5 3 3 7 5 2 1 2 3 3 5 8 7 4 2 5 5 5 5 2 3 10 1 1 1 3 3
10 10 7 4 4 5 6 6 7 7 4 3 3 2 1 2 1 2 3 6 4 2 1 3 4 4 2 2 2 6 4 4 1 6 2 3 6 13 9 3 0 5 5 5
11 6 5 5 6 5 6 7 8 7 5 8 5 4 2 2 2 1 6 4 2 2 0 2 2 1 1 3 2 1 2 3 3 4 1 2 18 2 2 3 4 4 7 8
7 7 7 6 5 5 5 7 9 7 5 9 11 11 9 6 3 3 3 2 3 2 0 1 2 2 2 2 1 3 1 2 1 2 2 3 7 7 5 6 6 8 10 11
7 7 6 6 5 6 4 7 10 9 14 9 3 5 9 9 7 4 3 3 3 2 3 2 2 4 3 2 0 2 5 11 1 1 4 8 7 8 9 9 9 10 11 11
6 7 8 10 6 4 5 8 10 7 8 6 6 3 4 11 14 8 9 17 17 13 1 5 3 2 6 2 2 3 3 7 4 2 4 10 4 11 12 12 12 12 13 12
11 10 12 6 6 6 6 6 8 6 3 6 6 7 9 9 12 17 9 1 5 4 5 5 2 4 4 3 3 3 8 2 1 2 7 8 16 12 12 15 15 15 16 18
12 15 8 10 10 7 6 4 7 5 9 6 2 5 17 5 11 15 19 10 9 9 6 5 4 6 4 2 2 4 10 8 4 5 13 15 10 14 9 17 19 19 18 18
25 18 12 11 7 6 5 4 4 7 8 4 5 2 8 12 10 12 10 15 11 7 5 5 4 7 5 2 2 14 13 11 6 10 15 10 13 14 17 17 18 18 19 18
23 15 12 13 15 21 22 21 6 6 6 7 4 5 5 21 9 8 12 5 7 10 5 4 3 4 5 2 10 14 14 13 8 14 15 17 17 19 19 19 19 21 22 21
18 15 15 12 8 10 10 9 16 15 11 7 6 4 3 17 12 8 4 5 3 5 4 4 3 2 3 4 13 15 15 14 18 21 20 18 18 21 22 22 21 21 23 23
15 9 4 6 6 8 5 4 4 11 12 9 6 12 3 10 8 9 8 6 2 3 2 3 3 1 7 9 14 15 16 18 18 22 24 25 26 25 26 25 23 22 24 25
5 4 6 11 7 5 7 7 10 10 6 8 9 8 7 9 3 3 8 1 4 3 3 3 2 2 7 16 15 18 19 18 18 18 21 22 23 25 26 27 26 25 24 25
7 14 16 8 9 9 10 3 6 7 1 9 8 11 8 7 6 4 8 2 3 1 7 3 2 4 10 22 20 24 20 18 20 19 21 22 22 22 23 25 25 25 25 25
11 7 7 9 10 13 7 6 4 4 10 8 18 11 8 6 6 3 5 5 1 6 4 2 4 7 18 28 24 27 26 21 21 22 22 23 24 23 23 25 24 24 25 24
9 8 8 5 5 3 2 2 4 7 9 17 18 6 7 5 6 3 5 1 2 4 4 4 4 16 33 29 27 29 30 26 25 26 26 26 26 27 26 25 24 23 25 24
9 9 5 4 3 6 7 7 8 6 10 11 6 2 5 6 4 4 2 6 3 3 4 3 18 34 32 30 31 30 31 29 29 29 28 29 28 28 29 26 26 25 24 24
9 12 6 5 3 13 14 14 13 10 8 5 3 3 4 4 1 5 2 3 4 4 6 28 35 32 33 33 33 33 31 30 30 29 29 30 29 28 29 29 28 25 25 24
8 7 11 6 4 6 10 13 15 8 5 4 3 5 4 3 3 4 3 4 4 23 35 37 33 34 35 34 33 31 31 31 30 30 30 30 29 28 29 30 28 24 22 23
Wind_Direction
233 245 244 251 262 292 308 292 316 241 255 40 69 154 201 200 208 211 223 206 223 212 187 234 228 219 211 175 163 177 212 164 211 225 218 170 177 219 163 165 257 232 167 261
230 232 242 261 273 292 320 284 243 236 204 175 220 258 258 245 192 208 168 233 217 178 192 278 222 215 236 194 166 184 188 250 5 320 352 5 211 232 160 124 84 218 220 265
223 215 253 261 271 296 332 299 341 191 188 171 147 173 229 228 207 231 209 238 199 170 209 236 272 232 247 220 219 241 186 180 180 242 219 150 212 220 204 178 151 198 225 267
210 215 235 247 263 290 326 178 216 197 236 234 166 174 177 193 217 233 218 242 219 173 258 279 249 265 277 267 252 251 170 244 201 244 248 190 227 212 188 200 218 210 250 206
200 199 227 238 259 274 255 212 182 187 183 165 147 208 222 203 214 166 244 210 222 165 198 214 281 272 268 261 264 227 201 247 249 247 251 239 226 225 218 220 209 272 166 275
181 196 224 231 254 265 216 205 200 190 191 155 130 217 205 199 133 248 250 250 194 240 252 263 271 272 262 258 241 232 240 248 239 264 244 246 235 221 213 163 32 226 207 228
180 205 216 250 256 269 244 212 182 162 246 179 208 193 200 200 224 231 267 272 240 271 276 292 280 264 262 251 246 234 250 251 255 269 270 247 59 353 131 108 59 168 101 244
189 204 215 245 257 265 239 197 191 172 218 235 275 275 254 284 286 282 267 280 274 289 314 306 294 304 327 259 245 258 227 249 263 271 262 103 351 352 40 75 8 349 114 322
189 213 201 223 238 221 217 204 208 175 142 349 318 303 345 208 273 326 259 283 294 300 241 45 238 249 269 292 330 24 17 234 255 269 249 235 39 15 356 195 196 28 41 356
189 193 212 231 208 217 220 206 203 191 134 47 25 81 277 335 342 247 320 343 332 313 218 250 234 245 250 254 22 333 340 351 320 278 237 87 347 314 318 103 213 35 13 350
197 202 187 186 197 226 220 194 199 199 131 67 60 69 54 30 26 116 338 342 348 308 266 195 256 277 46 77 44 358 46 326 360 299 128 198 349 21 357 332 46 353 340 328
168 174 180 184 200 215 204 177 190 192 142 119 83 63 43 29 356 321 305 269 283 290 49 328 346 24 36 169 208 343 293 173 345 41 39 16 25 58 27 3 344 330 323 330
171 172 160 177 183 207 223 186 169 162 111 115 99 53 52 44 20 274 285 266 279 11 358 33 82 91 339 64 26 156 354 15 36 263 26 343 31 14 1 353 336 331 328 327
155 134 150 183 196 196 178 172 170 169 132 109 58 87 33 21 16 5 265 263 272 277 117 79 61 79 37 65 82 75 337 323 334 320 338 345 246 344 338 340 340 336 331 328
134 149 170 150 139 137 143 142 149 179 177 129 144 62 40 41 27 22 9 19 168 103 74 53 50 74 92 61 72 23 350 323 14 273 333 305 296 319 324 326 332 332 327 325
140 159 142 137 133 131 135 109 79 130 124 110 94 99 33 55 40 22 30 42 62 78 77 65 64 39 99 88 93 345 360 341 296 299 329 318 314 323 323 321 323 322 318 316
141 149 129 124 126 163 104 71 1 140 125 92 104 44 9 22 33 33 18 39 54 65 78 60 45 24 54 70 66 339 349 347 296 353 339 323 321 319 320 318 316 314 313 313
156 127 107 107 109 107 80 56 80 119 101 72 63 336 28 15 356 5 8 27 43 41 80 65 47 34 51 61 339 349 344 334 309 316 321 310 305 312 314 316 312 310 309 312
139 120 109 108 79 62 53 43 55 67 71 86 59 5 304 356 2 352 358 33 55 44 62 42 65 29 38 290 328 337 340 329 314 317 317 317 311 312 316 318 317 314 313 316
127 121 91 66 45 77 59 54 39 35 40 54 47 358 294 345 332 351 7 31 33 58 23 51 61 233 345 334 328 324 326 325 320 317 317 318 314 312 313 314 313 312 312 312
122 72 69 85 64 50 49 50 40 7 44 19 2 351 326 6 347 322 18 208 4 59 316 89 343 310 333 341 332 333 326 320 316 312 309 307 305 305 308 311 310 309 310 309
115 117 97 55 36 42 65 19 13 39 46 359 349 337 331 329 335 338 5 103 28 42 333 69 332 254 336 345 327 332 328 322 319 319 318 315 312 311 309 308 308 308 308 308
93 62 60 19 12 42 53 353 336 354 352 350 339 327 340 336 350 30 26 53 223 311 36 238 229 269 323 331 327 327 328 318 316 315 316 318 315 312 310 308 308 308 304 306
59 47 35 65 7 34 184 233 270 297 303 323 328 330 9 354 7 357 64 278 26 33 13 253 256 320 327 326 326 323 322 319 314 314 312 310 311 311 310 308 309 306 304 307
66 48 56 61 38 19 357 348 334 332 319 324 322 320 350 9 48 30 24 15 341 200 241 244 309 317 320 319 320 320 319 317 313 312 311 311 310 308 309 310 307 306 300 301
65 49 61 27 23 10 17 8 2 1 345 341 354 33 46 16 107 39 205 110 243 260 252 306 312 310 313 316 317 315 314 312 310 309 309 309 310 308 310 308 307 306 299 293
61 45 50 60 18 345 3 3 358 358 0 25 14 52 232 286 20 339 184 209 238 300 304 309 310 308 313 317 315 315 315 315 312 310 310 308 306 304 304 304 309 309 302 293
Height
1533 1534 1535 1534 1535 1534 1534 1533 1534 1532 1532 1536 1538 1545 1540 1538 1537 1538 1538 1539 1539 1540 1542 1542 1544 1541 1536 1536 1538 1547 1546 1558 1555 1544 1549 1551 1552 1549 1553 1561 1564 1564 1568 1555
1528 1530 1530 1531 1532 1532 1532 1531 1531 1530 1532 1536 1539 1537 1537 1537 1537 1537 1538 1538 1538 1538 1542 1546 1538 1535 1533 1534 1536 1541 1542 1558 1558 1546 1554 1552 1553 1554 1551 1554 1561 1570 1556 1543
1522 1524 1526 1528 1529 1529 1530 1530 1531 1531 1531 1532 1534 1536 1536 1535 1534 1535 1536 1536 1537 1538 1539 1539 1537 1535 1532 1531 1532 1531 1532 1547 1545 1534 1543 1547 1548 1546 1543 1537 1551 1554 1544 1527
1518 1521 1523 1525 1526 1526 1528 1529 1529 1530 1532 1532 1533 1534 1535 1533 1534 1534 1535 1535 1535 1537 1540 1537 1535 1532 1530 1529 1527 1525 1527 1525 1533 1525 1525 1533 1523 1524 1533 1536 1525 1526 1520 1536
1512 1516 1520 1522 1523 1523 1525 1527 1529 1531 1530 1531 1532 1533 1533 1531 1532 1534 1534 1536 1533 1535 1542 1538 1533 1532 1531 1527 1522 1522 1518 1515 1513 1512 1512 1513 1515 1513 1519 1522 1526 1533 1543 1533
1509 1513 1517 1520 1520 1520 1521 1522 1524 1527 1529 1530 1533 1530 1527 1529 1531 1531 1531 1532 1533 1533 1530 1528 1526 1525 1523 1522 1519 1516 1516 1511 1508 1502 1503 1505 1505 1510 1513 1524 1533 1524 1523 1532
1507 1510 1514 1516 1517 1518 1519 1520 1522 1525 1526 1526 1526 1526 1527 1528 1530 1531 1529 1530 1530 1527 1525 1524 1522 1519 1515 1514 1511 1510 1508 1510 1506 1500 1500 1501 1512 1518 1515 1522 1529 1531 1530 1531
1505 1508 1509 1513 1514 1514 1517 1519 1520 1521 1525 1525 1525 1526 1526 1526 1527 1528 1526 1525 1525 1524 1524 1525 1521 1518 1515 1507 1505 1506 1506 1506 1501 1499 1496 1511 1525 1526 1524 1522 1531 1530 1532 1532
1505 1507 1508 1511 1512 1513 1515 1518 1519 1520 1523 1527 1526 1527 1526 1526 1527 1525 1523 1523 1523 1523 1523 1524 1534 1524 1517 1517 1509 1506 1505 1506 1506 1506 1499 1497 1531 1527 1526 1525 1524 1532 1532 1532
1502 1504 1507 1509 1511 1512 1515 1516 1518 1520 1522 1526 1527 1527 1527 1527 1527 1527 1524 1523 1523 1522 1523 1522 1525 1527 1520 1515 1528 1531 1522 1526 1518 1500 1497 1527 1532 1530 1527 1530 1534 1533 1533 1532
1501 1503 1505 1507 1509 1511 1514 1515 1517 1519 1521 1527 1527 1528 1528 1527 1527 1528 1526 1526 1525 1523 1526 1524 1519 1515 1523 1530 1539 1540 1540 1541 1534 1522 1513 1519 1532 1530 1529 1537 1534 1533 1532 1530
1501 1503 1505 1506 1509 1511 1512 1514 1516 1518 1521 1529 1530 1529 1530 1528 1528 1529 1527 1527 1526 1524 1524 1524 1519 1521 1526 1534 1540 1542 1541 1549 1544 1544 1541 1541 1539 1538 1538 1536 1535 1533 1531 1528
1501 1502 1503 1505 1509 1510 1511 1512 1515 1518 1523 1530 1532 1531 1531 1530 1528 1527 1528 1525 1525 1523 1524 1523 1525 1531 1532 1535 1546 1545 1546 1544 1543 1541 1544 1542 1540 1539 1538 1536 1535 1531 1529 1526
1500 1502 1503 1505 1507 1509 1511 1512 1515 1518 1521 1528 1535 1531 1531 1530 1528 1526 1525 1524 1523 1523 1523 1524 1529 1533 1537 1544 1546 1547 1552 1547 1547 1545 1543 1540 1540 1539 1537 1535 1533 1530 1527 1525
1500 1502 1503 1506 1508 1510 1511 1513 1516 1518 1522 1525 1531 1532 1533 1531 1530 1527 1523 1520 1520 1521 1524 1528 1535 1538 1541 1546 1548 1555 1553 1553 1552 1549 1547 1546 1541 1538 1536 1533 1531 1528 1525 1522
1501 1502 1505 1508 1509 1511 1513 1516 1519 1518 1519 1522 1531 1535 1534 1532 1531 1528 1525 1522 1522 1524 1528 1535 1539 1541 1543 1550 1556 1555 1553 1552 1550 1548 1545 1541 1539 1537 1534 1531 1528 1525 1522 1519
1501 1503 1506 1509 1511 1513 1515 1521 1520 1519 1521 1523 1532 1535 1535 1533 1532 1531 1530 1528 1527 1529 1534 1541 1544 1544 1544 1551 1560 1555 1552 1550 1548 1546 1543 1539 1537 1534 1531 1529 1525 1522 1519 1516
1503 1507 1510 1513 1515 1516 1517 1520 1521 1522 1522 1526 1537 1542 1539 1539 1536 1534 1533 1532 1532 1535 1540 1545 1547 1548 1550 1558 1556 1553 1551 1548 1545 1544 1542 1538 1534 1531 1528 1525 1521 1517 1514 1511
1509 1512 1515 1517 1518 1520 1525 1525 1525 1524 1528 1537 1550 1557 1554 1544 1542 1539 1537 1535 1539 1541 1545 1548 1549 1554 1559 1557 1554 1552 1549 1547 1543 1539 1537 1533 1530 1527 1523 1520 1517 1513 1509 1505
1512 1515 1516 1520 1525 1525 1527 1528 1528 1530 1540 1549 1560 1559 1555 1552 1546 1543 1540 1539 1544 1551 1552 1551 1555 1561 1558 1555 1553 1550 1546 1543 1540 1536 1531 1528 1524 1522 1518 1515 1512 1509 1505 1501
1514 1515 1522 1527 1527 1528 1530 1537 1544 1551 1559 1563 1563 1562 1559 1555 1553 1550 1548 1550 1551 1564 1557 1557 1567 1568 1555 1553 1549 1547 1543 1540 1537 1533 1529 1525 1521 1517 1513 1509 1506 1503 1500 1496
1515 1518 1525 1529 1532 1535 1542 1562 1563 1566 1574 1569 1566 1564 1562 1558 1556 1553 1553 1557 1556 1566 1559 1564 1572 1557 1552 1550 1546 1542 1539 1535 1531 1528 1524 1520 1516 1513 1509 1504 1501 1498 1494 1491
1519 1523 1531 1541 1551 1561 1577 1589 1582 1579 1574 1572 1570 1566 1563 1560 1559 1558 1558 1565 1572 1563 1570 1571 1561 1551 1550 1546 1542 1537 1534 1530 1527 1522 1519 1515 1511 1507 1504 1499 1496 1492 1488 1485
1525 1538 1556 1566 1582 1584 1585 1584 1582 1579 1575 1572 1570 1567 1566 1564 1562 1563 1570 1570 1569 1582 1585 1571 1552 1549 1545 1541 1537 1533 1528 1524 1520 1516 1513 1509 1505 1501 1497 1494 1490 1486 1482 1479
1540 1553 1580 1585 1587 1586 1583 1582 1579 1577 1575 1572 1570 1569 1569 1567 1568 1571 1572 1576 1585 1576 1570 1557 1548 1545 1540 1536 1532 1527 1523 1518 1514 1510 1506 1502 1498 1494 1489 1487 1483 1480 1476 1473
1558 1574 1584 1587 1586 1585 1582 1580 1578 1576 1574 1573 1572 1571 1575 1581 1581 1580 1589 1590 1584 1566 1556 1550 1545 1539 1535 1531 1526 1522 1517 1512 1507 1503 1499 1495 1491 1487 1483 1479 1476 1473 1470 1466
1578 1590 1589 1589 1588 1587 1584 1582 1579 1577 1576 1575 1574 1581 1587 1583 1587 1585 1580 1579 1563 1556 1550 1545 1540 1535 1529 1525 1520 1515 1510 1505 1501 1496 1492 1488 1484 1480 1476 1471 1468 1465 1462 1459